World > North America > United States > Texas > Santo

Hourly Santo, TX Regional Weather

Feedback E-mail the Weather

Quick WX

Santo, TX Weather Maps

°F °C°F °C
Santo Weather Map
UTC Time: 8/14/2022, 18:18
Your Time:

Santo, TX Regional Weather

Expires:202208141900;;095294
ASUS44 KFWD 141815
RWRTX 
NORTH TEXAS HOURLY WEATHER ROUNDUP
NATIONAL WEATHER SERVICE FORT WORTH TX
100 PM CDT SUN AUG 14 2022

NOTE: "FAIR" INDICATES FEW OR NO CLOUDS BELOW 12,000 FEET WITH NO
SIGNIFICANT WEATHER AND/OR OBSTRUCTIONS TO VISIBILITY.


TXZ083>090-098>101-113>116-127>130-139>142-154-155-141900-
WESTERN NORTH TEXAS
  
CITY           SKY/WX    TMP DP  RH WIND       PRES   REMARKS
WICHITA FALLS  FAIR      96  61  31 SE9       29.98F HX  96           
6HR MIN TEMP:  72; 6HR MAX TEMP:  97;                                

VERNON         FAIR      98  58  26 SE6G18    30.00F HX  97           
6HR MIN TEMP:  74; 6HR MAX TEMP:  98;                                

ABILENE        FAIR      94  57  28 VRB5      30.02F HX  92           
6HR MIN TEMP:  74; 6HR MAX TEMP:  96;                                

ABILENE-DYESS  FAIR      94  55  26 NE7       29.99F HX  92           
6HR MIN TEMP:  73; 6HR MAX TEMP:  95;                                

GRAHAM         FAIR      95  63  34 VRB7      29.98F HX  96           
BRECKENRIDGE   FAIR      96  60  29 SE7G18    30.00F HAZE    HX  95   
6HR MIN TEMP:  73; 6HR MAX TEMP:  96;                                

CISCO          FAIR      93  57  29 SE13G18   30.02S HX  92           
EASTLAND       FAIR      93  63  36 S12G22    30.02F HX  94           
6HR MIN TEMP:  68; 6HR MAX TEMP:  94;                                

RANGER         FAIR      94  59  31 SE9G17    30.02F HX  93           
6HR MIN TEMP:  67; 6HR MAX TEMP:  94;                                

MINERAL WELLS  FAIR      96  63  33 SE9       29.98F HX  97           
6HR MIN TEMP:  74; 6HR MAX TEMP:  96;                                

STEPHENVILLE   FAIR      96  60  29 E10G17    30.03F HX  96           
6HR MIN TEMP:  73; 6HR MAX TEMP:  97;                                

COLEMAN        FAIR      93  60  32 SE9       30.03F HX  92           
6HR MIN TEMP:  72; 6HR MAX TEMP:  93;                                

SAN SABA       PTSUNNY   93  66  40 SE12      30.01F HX  96           
6HR MIN TEMP:  73; 6HR MAX TEMP:  95;                                

$$


SKY/WX - Weather  TMP - Temperature  DP - Dew Point  RH - Humidity
WIND - Wind Direction/Speed PRES - Barometric Pressure VSB - Visibility
WCI - Wind Chill Index E13G22 Wind - East Wind 13 mph/Gusts of 22 mph

Trending Headlines

Santo Radar Loop



Santo Quick Facts


National Two Day Weather Forecast


E-mail the Santo Weather Forecast

Voice your opinion or tell us about page issues...